Location: Dęblin
(51.5600°N, 21.8563°E)
Time: 23:51:06
(UTC+02:00)

ISS - Visible Passes

Search period start: 20 September 2018 00:00
Search period end: 30 September 2018 00:00
Orbit: 403 x 408 km, 51.6° (Epoch: 20 September)

Date Brightness Start Highest point End Pass type
(mag) Time Alt. Az. Time Alt. Az. Time Alt. Az.
22 Sep -1.5 20:28:09 10° SSW 20:28:49 14° SSW 20:28:49 14° SSW visible
23 Sep -2.1 19:37:03 10° S 19:39:15 17° SE 19:39:35 16° SE visible
23 Sep -0.9 21:12:01 10° WSW 21:12:18 12° WSW 21:12:18 12° WSW visible
24 Sep -3.0 20:20:19 10° SW 20:22:51 37° S 20:22:51 37° S visible
25 Sep -2.7 19:28:47 10° SSW 19:31:41 29° SSE 19:33:16 19° ESE visible
25 Sep -1.6 21:04:39 10° WSW 21:05:57 22° WSW 21:05:57 22° WSW visible
26 Sep -3.9 20:12:47 10° WSW 20:16:03 65° SSE 20:16:13 63° SE visible
27 Sep -3.4 19:20:59 10° SW 19:24:11 47° SSE 19:26:24 18° E visible
27 Sep -2.0 20:57:17 10° W 20:59:05 29° W 20:59:05 29° W visible
28 Sep -3.9 20:05:21 10° W 20:08:40 85° S 20:09:11 61° E visible
29 Sep -3.8 19:13:25 10° WSW 19:16:43 71° SSE 19:19:13 16° E visible
29 Sep -2.1 20:49:55 10° W 20:51:53 33° W 20:51:53 33° W visible
